Погода в Мичуринске

Погода в Мичуринске : погода сейчас, прогноз погоды и архив. Всё, что Вы хотите узнать о погоде в Мичуринске!

Хотите узнать прогноз погоды в Мичуринске? Тогда Вам сюда: Погода в Мичуринске

Поиск расширенной информации на нашем сайте:

Другие новости

Новости СМИ2

Главная страница сайта

Новости сайта

03.07.2017

Напоминаем, что на нашем специализированном сайте Метеоцентр.Азия вы можете получить высокодетализированные автоматические прогнозы погоды по пунктам России, СНГ и мира в авиационном формате (включающие направление и скорость ветра, видимость, явления погоды, количество и форму облачности, нижнюю и верхнюю границу облачности).

Рекомендуем: Купить женские велосипеды giant 2014.

Погода в Мичуринске - сегодня

Время (UTC), дата Ветер
(°,м/с) 
Видим.   Явления Облачность Т
(°С)
Тd
(°С)
f(%) Тe
(°С)
Pmin
(гПа)
dP
(гПа)
Po
(мм)
O2
(г/м3)
Тmin Tmax R s Состояние
почвы
00 19.11.17 160 (Ю) 4000 м  дымка  10/10 1000 м 
[Sc]
+0.4 -1.9 85 -2  1018.9  -1  749  302           
03 19.11.17 140 (ЮВ) 4000 м  дымка  10/10 1000 м 
[Sc]
-0.1 -2.2 86 -1  1017.3  -1.6  748  302  -0.1         
06 19.11.17 160 (Ю) 4000 м  дымка  10/10 1000 м 
[Sc]
+0.3 -1.4 88 -2  1016.5  -0.8  748  301           
09 19.11.17 140 (ЮВ) 2000 м  слаб. снег  10/0 средняя 
[As op]
+0.6 -0.8 90 -2  1014.8  -1.7  746  300           
12 19.11.17 140 (ЮВ) 2000 м  слаб. дождь{снег}  10/10 300 м 
[Frnb|Ns]
+1.5 +0.1 90 -1  1013.2  -1.4  745  299           
15 19.11.17 140 (ЮВ) 2000 м  слаб. дождь  10/10 300 м 
[Frnb|Ns]
+1.9 +0.6 91 1012.1  -1  744  298    +1.9     
18 19.11.17 160 (Ю) 2000 м  слаб. дождь  10/10 300 м 
[Frnb|Ns]
+2.4 +1.4 93 1010.8  -1.3  743  297           
21 19.11.17 160 (Ю) 2000 м  слаб. дождь  10/10 300 м 
[Frnb|Ns]
+3.2 +2.2 93 +3  1010.6  -0.2  743  296           
00 20.11.17 230 (ЮЗ) 2000 м  слаб. дождь  10/10 300 м 
[Frnb|Ns]
+3.8 +2.8 93 +3  1011  0.5  744  295           
03 20.11.17 270 (З) 2000 м  дымка{дождь}  10/10 300 м 
[Frnb|Ns]
+2.6 +1.6 93 +2  1011.7  0.6  744  297  +1.9    0.8     
06 20.11.17 тихо ()   2000 м  слаб. дождь  10/10 300 м 
[Frnb|Ns]
+2.2 +0.9 91 +2  1012.6  0.9  745  298  +2.1        влажная 
09 20.11.17 050 (СВ) 2000 м  дымка{дождь}  10/10 300 м 
[Frnb|Ns]
+2.5 +1.2 91 +2  1012.7  0.1  745  297           
12 20.11.17 050 (СВ) 4000 м  дымка{дождь}  10/10 600 м 
[Sc]
+2.8 +1.2 89 +2  1011.8  -0.9  744  297           
15 20.11.17 050 (СВ) 2000 м  слаб. дождь  10/10 300 м 
[Frnb|Ns]
+2.5 +1.2 91 +2  1010.2  -1.6  743  296    +2.9     
18 20.11.17 050 (СВ) 2000 м  слаб. дождь  10/10 300 м 
[Frnb|Ns]
+3.4 +2.1 91 +3  1007.3  -2.7  741  295           
21 20.11.17 110 (В) 2000 м  слаб. дождь  10/10 300 м 
[Frnb|Ns]
+5.8 +4.6 92 +4  1003.9  -3.2  739  291           
00 21.11.17 160 (Ю) 2000 м  слаб. дождь  10/10 300 м 
[Frnb|Ns]
+6.7 +5.6 93 +5  1002  -1.8  737  289           
03 21.11.17 160 (Ю) 2000 м  дымка{дождь}  10/10 300 м 
[Frnb|Ns]
+7.5 +6.4 93 +6  1000.7  -1.2  736  288  +2.5    18     
06 21.11.17 230 (ЮЗ) 2000 м  слаб. дождь  10/10 300 м 
[Frnb|Ns]
+7.1 +5.9 92 +6  1001.4  0.6  737  288           
09 21.11.17 270 (З) 2000 м  слаб. дождь  10/10 300 м 
[Frnb|Ns]
+2.3 +1 91 +2  1002.8  1.1  738  295           
12 21.11.17 320 (СЗ) 2000 м  дымка{дождь}  10/10 300 м 
[Frnb|Ns]
+1.7 +0.6 92 +1  1003.6  0.7  738  295           
15 21.11.17 320 (СЗ) 4000 м  дымка  10/10 600 м 
[Sc]
+0.9 -0.5 90 1004.1  0.5  739  297    +7.8     
18 21.11.17 340 (С) 2000 м  слаб. снег  10/10 300 м 
[Frnb|Ns]
+0.4 -0.7 92 1004.1  -0.1  738  297           
21 21.11.17 320 (СЗ) 2000 м  слаб. снег [диам. отлож. мокр. снега 5 мм]  10/10 300 м 
[Frnb|Ns]
-0 -1 93 -1  1003.7  -0.3  738  298           
00 22.11.17 тихо ()   2000 м  слаб. снег [диам. отлож. мокр. снега 10 мм]  10/10 300 м 
[Frnb|Ns]
-0.2 -1.4 92 -0  1003.3  -0.6  738  298           
Время (UTC), дата Ветер
(°,м/с) 
Видим.   Явления Облачность Т
(°С)
Тd
(°С)
f(%) Тe
(°С)
Pmin
(гПа)
dP
(гПа)
Po
(мм)
O2
(г/м3)
Тmin Tmax R s Состояние
почвы

Для получения пояснительной информации подведите курсор к названию столбца.

ПОГОДА в Мичуринске - архив

Всё, что Вы хотите узнать о погоде в Мичуринске - удобно и подробно!

Выберите нужную дату (начиная с 1 января 2015* года) и нажмите кнопку "Найти".
Будут отображены архивные сводки погоды по пункту Мичуринск, начиная с указанной даты.


Отображать данные в формате CSV (для использования в таблицах Excel)


Внимание! Наш архив погоды предназначен исключительно для личного некоммерческого использования в познавательных целях. Если Вам необходимы официальные справки о состоянии погоды (для производственных, юридических, коммерческих и т.п. целей), обращайтесь в органы Росгидромета.

*Примечание: данная дата относится к архиву по метеостанциям СССР (Россия, СНГ, Балтия).
Архив по метеостанциям Зарубежной Европы и Азии (кроме Китая) хранится 10 дней, по другим регионам земного шара (Китай, Африка, Америка, Австралия, Океания) - 1 день.

Мичуринск - район местоположения метеостанции


Название, широта, долгота, высота метеостанции:
Мичуринск 52.9°ш. 40.5°д. 158 м над ур. моря [Российская Федерация]

Дополнительная информация

В oтличие oт бoльшинства пoгoдных сайтoв мы публикуем пoдрoбную метеoинфoрмацию в детальнoм прoфессиoнальнoм фoрмате.

Характеристики температуры и влажнoсти вoздуха измеряются на высoте 2 м в тени вдали oт зданий и деревьев.
Скoрoсть ветра измеряется на высoте 10 м (на урoвне рoста челoвека скoрoсть ветра ниже в 1.5-2 раза). Если метеoстанция нахoдится в гoрoде или в лесу, тo скoрoсть ветра занижена на 2-4 м/с пo сравнению с oткрытым местoм. Скoрoсть ветра над акватoриями крупных рек и oзёр, а также на вершинах хoлмoв на 2-5 м/с выше, чем в oбычных услoвиях.
Атмoсфернoе давление в разных тoчках местнoсти мoжет значительнo oтличаться oт давления на метеoстанции, в зависимoсти oт услoвий рельефа (при пoдъёме на 10 м давление пoнижается примернo на 1 мм рт.ст.).